.
WxDataArchive / Data Records for 2006-09-23
2006-09-22 September 2006 2006-09-24

Data Records for Saturday, 23 September 2006

Time	Temp	Chill	HIndex	Humid	Dewpt	 Wind 	HiWind	WindDir	Rain 	Barom 
-----	----	-----	------	-----	-----	------	------	-------	-----	----- 
00:00	64.5	64.5	64.5	95	63.0	0	0	---	0.00	29.673 
00:05	64.5	64.5	64.5	95	63.0	0	0	---	0.00	29.673 
00:10	64.5	64.5	64.5	96	63.3	0	0	---	0.00	29.673 
00:15	64.5	64.5	64.5	96	63.3	0	1	270	0.00	29.673 
00:20	64.5	64.5	64.5	96	63.3	0	1	270	0.02	29.673 
00:25	64.5	64.5	64.5	96	63.3	0	1	270	0.01	29.673 
00:30	64.5	64.5	64.5	96	63.3	0	1	270	0.03	29.673 
00:35	64.5	64.5	64.5	96	63.3	0	0	---	0.01	29.673 
00:40	64.5	64.5	64.5	96	63.3	0	1	270	0.01	29.673 
00:45	64.5	64.5	64.5	96	63.3	0	0	---	0.01	29.668 
00:50	64.5	64.5	64.5	96	63.3	0	1	270	0.00	29.668 
00:55	64.3	64.3	64.3	96	63.1	0	1	270	0.00	29.668 
01:00	64.3	64.3	64.3	96	63.1	0	1	270	0.00	29.662 
01:05	64.3	64.3	64.3	96	63.1	0	1	270	0.00	29.662 
01:10	64.3	64.3	64.3	96	63.1	1	2	248	0.00	29.662 
01:15	64.3	64.3	64.3	96	63.1	0	1	248	0.00	29.658 
01:20	64.3	64.3	64.3	96	63.1	1	3	248	0.00	29.658 
01:25	64.3	64.3	64.3	96	63.1	2	3	112	0.00	29.658 
01:30	64.3	64.3	64.3	96	63.1	3	6	90	0.00	29.636 
01:35	64.3	64.3	64.3	96	63.1	3	5	90	0.00	29.636 
01:40	64.5	64.5	64.5	96	63.3	2	7	112	0.00	29.636 
01:45	64.5	64.5	64.5	96	63.3	2	11	90	0.00	29.618 
01:50	64.5	64.5	64.5	96	63.3	1	6	112	0.00	29.618 
01:55	64.5	64.5	64.5	96	63.3	2	6	112	0.00	29.618 
02:00	64.5	64.5	64.5	96	63.3	1	4	112	0.00	29.615 
02:05	64.7	64.7	64.7	96	63.5	2	5	112	0.00	29.615 
02:10	64.7	64.7	64.7	96	63.5	1	3	90	0.00	29.615 
02:15	64.7	64.7	64.7	96	63.5	0	3	90	0.00	29.624 
02:20	64.7	64.7	64.7	96	63.5	0	2	90	0.00	29.624 
02:25	64.8	64.8	64.8	96	63.6	1	3	270	0.00	29.624 
02:30	64.8	64.8	64.8	96	63.6	1	2	112	0.00	29.623 
02:35	65.0	65.0	65.0	96	63.8	1	4	90	0.00	29.623 
02:40	65.0	65.0	65.0	96	63.8	0	2	90	0.00	29.623 
02:45	65.2	65.2	65.2	96	64.0	0	1	68	0.00	29.625 
02:50	65.2	65.2	65.2	96	64.0	0	1	68	0.00	29.625 
02:55	65.2	65.2	65.2	96	64.0	0	2	68	0.00	29.625 
03:00	65.2	65.2	65.2	96	64.0	0	0	---	0.00	29.625 
03:05	65.2	65.2	65.2	96	64.0	0	2	68	0.00	29.625 
03:10	65.2	65.2	65.2	96	64.0	0	2	68	0.00	29.625 
03:15	65.2	65.2	65.2	96	64.0	0	1	68	0.00	29.629 
03:20	65.2	65.2	65.2	96	64.0	0	2	68	0.00	29.629 
03:25	65.2	65.2	65.2	96	64.0	0	1	68	0.00	29.629 
03:30	65.2	65.2	65.2	96	64.0	0	3	68	0.00	29.634 
03:35	65.2	65.2	65.2	96	64.0	0	2	45	0.00	29.634 
03:40	65.2	65.2	65.2	96	64.0	0	2	270	0.00	29.634 
03:45	65.2	65.2	65.2	96	64.0	0	1	270	0.00	29.632 
03:50	65.2	65.2	65.2	96	64.0	0	3	270	0.00	29.632 
03:55	65.2	65.2	65.2	96	64.0	0	1	270	0.00	29.632 
04:00	65.2	65.2	65.2	96	64.0	0	1	270	0.00	29.624 
04:05	65.2	65.2	65.2	96	64.0	0	0	---	0.00	29.624 
04:10	65.2	65.2	65.2	96	64.0	0	2	270	0.00	29.624 
04:15	65.2	65.2	65.2	96	64.0	0	3	248	0.00	29.624 
04:20	65.2	65.2	65.2	96	64.0	0	2	248	0.00	29.624 
04:25	65.2	65.2	65.2	96	64.0	0	1	248	0.00	29.624 
04:30	65.2	65.2	65.2	96	64.0	0	2	248	0.00	29.622 
04:35	65.2	65.2	65.2	96	64.0	0	1	248	0.00	29.622 
04:40	65.3	65.3	65.3	96	64.1	0	2	248	0.00	29.622 
04:45	65.3	65.3	65.3	96	64.1	0	2	248	0.00	29.625 
04:50	65.3	65.3	65.3	96	64.1	0	2	248	0.00	29.625 
04:55	65.5	65.5	65.5	96	64.3	1	3	248	0.00	29.625 
05:00	65.5	65.5	65.5	96	64.3	1	3	248	0.00	29.623 
05:05	65.6	65.6	65.6	96	64.4	1	4	270	0.00	29.623 
05:10	65.6	65.6	65.6	96	64.4	1	3	248	0.00	29.623 
05:15	65.6	65.6	65.6	96	64.4	1	3	248	0.00	29.625 
05:20	65.6	65.6	65.6	96	64.4	0	2	248	0.00	29.625 
05:25	65.6	65.6	65.6	96	64.4	0	2	248	0.00	29.625 
05:30	65.8	65.8	65.8	96	64.6	0	3	248	0.00	29.621 
05:35	65.8	65.8	65.8	96	64.6	1	3	225	0.00	29.621 
05:40	65.8	65.8	65.8	96	64.6	1	4	270	0.00	29.621 
05:45	65.8	65.8	65.8	96	64.6	0	2	270	0.00	29.618 
05:50	66.0	66.0	66.0	96	64.8	0	3	248	0.00	29.618 
05:55	66.0	66.0	66.0	96	64.8	1	4	248	0.00	29.618 
06:00	66.0	66.0	66.0	96	64.8	0	2	248	0.00	29.619 
06:05	66.0	66.0	66.0	96	64.8	0	2	248	0.00	29.619 
06:10	66.1	66.1	66.1	96	64.9	1	2	248	0.00	29.619 
06:15	66.1	66.1	66.1	96	64.9	1	2	248	0.00	29.626 
06:20	66.3	66.3	66.3	96	65.1	0	2	248	0.00	29.626 
06:25	66.3	66.3	66.3	96	65.1	0	2	248	0.00	29.626 
06:30	66.3	66.3	66.3	96	65.1	1	3	248	0.00	29.644 
06:35	66.4	66.4	66.4	96	65.2	1	2	248	0.00	29.644 
06:40	66.4	66.4	66.4	96	65.2	1	2	248	0.00	29.644 
06:45	66.4	66.4	66.4	96	65.2	0	2	248	0.00	29.657 
06:50	66.4	66.4	66.4	96	65.2	0	2	248	0.00	29.657 
06:55	66.4	66.4	66.4	96	65.2	1	3	248	0.00	29.657 
07:00	66.6	66.6	66.6	96	65.4	1	3	248	0.00	29.666 
07:05	66.6	66.6	66.6	96	65.4	1	4	248	0.00	29.666 
07:10	66.6	66.6	66.6	96	65.4	1	3	248	0.00	29.666 
07:15	66.8	66.8	66.8	96	65.6	1	3	248	0.00	29.668 
07:20	66.8	66.8	66.8	96	65.6	1	2	248	0.00	29.668 
07:25	66.8	66.8	66.8	96	65.6	1	2	248	0.00	29.668 
07:30	66.8	66.8	66.8	96	65.6	0	1	248	0.00	29.664 
07:35	66.6	66.6	66.6	96	65.4	0	1	248	0.00	29.664 
07:40	66.6	66.6	66.6	96	65.4	0	2	248	0.00	29.664 
07:45	66.6	66.6	66.6	96	65.4	0	1	248	0.00	29.661 
07:50	66.6	66.6	66.6	96	65.4	0	2	248	0.00	29.661 
07:55	66.6	66.6	66.6	96	65.4	0	1	248	0.00	29.661 
08:00	66.8	66.8	66.8	96	65.6	0	3	248	0.00	29.656 
08:05	66.8	66.8	66.8	96	65.6	0	0	---	0.00	29.656 
08:10	66.9	66.9	66.9	96	65.7	0	3	248	0.00	29.656 
08:15	66.9	66.9	66.9	96	65.7	0	2	248	0.00	29.668 
08:20	66.9	66.9	66.9	96	65.7	0	2	248	0.00	29.668 
08:25	67.1	67.1	67.1	96	65.9	0	2	248	0.00	29.668 
08:30	67.1	67.1	67.1	96	65.9	0	3	248	0.00	29.676 
08:35	67.3	67.3	67.3	96	66.1	1	3	248	0.00	29.676 
08:40	67.3	67.3	67.3	96	66.1	1	7	248	0.00	29.676 
08:45	67.4	67.4	67.4	96	66.2	0	4	248	0.00	29.666 
08:50	67.6	67.6	67.6	96	66.4	0	2	248	0.00	29.666 
08:55	67.6	67.6	67.6	96	66.4	1	3	248	0.00	29.666 
09:00	67.8	67.8	67.8	96	66.6	1	3	248	0.00	29.661 
09:05	67.8	67.8	67.8	96	66.6	1	3	248	0.00	29.661 
09:10	67.9	67.9	67.9	96	66.7	1	3	248	0.00	29.661 
09:15	68.1	68.1	68.1	96	66.9	1	3	248	0.00	29.666 
09:20	68.1	68.1	68.1	95	66.6	2	7	270	0.00	29.666 
09:25	68.3	68.3	68.3	94	66.5	2	6	248	0.00	29.666 
09:30	68.4	68.4	68.4	94	66.6	1	6	270	0.00	29.670 
09:35	68.4	68.4	68.4	94	66.6	1	3	270	0.00	29.670 
09:40	68.6	68.6	68.6	93	66.5	2	4	248	0.00	29.670 
09:45	68.8	68.8	68.8	93	66.7	2	6	270	0.00	29.678 
09:50	68.9	68.9	68.9	92	66.5	3	6	248	0.00	29.678 
09:55	68.9	68.9	68.9	92	66.5	1	4	270	0.00	29.678 
10:00	69.1	69.1	69.1	92	66.7	2	5	248	0.00	29.666 
10:05	69.4	69.4	69.4	92	67.0	2	4	248	0.00	29.666 
10:10	69.6	69.6	69.6	91	66.8	2	9	248	0.00	29.666 
10:15	69.8	69.8	69.8	91	67.0	2	7	248	0.00	29.669 
10:20	69.8	69.8	69.8	91	67.0	2	4	248	0.00	29.669 
10:25	69.9	69.9	69.9	90	66.8	2	5	248	0.00	29.669 
10:30	69.9	69.9	69.9	90	66.8	2	8	270	0.00	29.677 
10:35	69.8	69.8	69.8	90	66.7	3	6	248	0.00	29.677 
10:40	69.6	69.6	69.6	91	66.8	2	5	248	0.00	29.677 
10:45	69.4	69.4	69.4	91	66.7	2	4	248	0.00	29.675 
10:50	69.4	69.4	69.4	92	67.0	1	7	248	0.00	29.675 
10:55	69.4	69.4	69.4	92	67.0	1	3	248	0.00	29.675 
11:00	69.3	69.3	69.3	92	66.9	3	6	270	0.00	29.681 
11:05	69.3	69.3	69.3	92	66.9	2	5	270	0.00	29.681 
11:10	69.3	69.3	69.3	92	66.9	2	6	248	0.00	29.681 
11:15	69.4	69.4	69.4	91	66.7	2	5	248	0.00	29.692 
11:20	69.6	69.6	69.6	91	66.8	1	6	248	0.00	29.692 
11:25	69.6	69.6	69.6	90	66.5	1	6	248	0.00	29.692 
11:30	69.6	69.6	69.6	90	66.5	2	4	248	0.00	29.688 
11:35	69.8	69.8	69.8	89	66.4	2	5	270	0.00	29.688 
11:40	69.8	69.8	69.8	88	66.1	2	5	248	0.00	29.688 
11:45	69.8	69.8	69.8	88	66.1	3	14	248	0.00	29.695 
11:50	69.8	69.8	69.8	87	65.7	2	5	248	0.00	29.695 
11:55	69.9	69.9	69.9	87	65.8	2	9	270	0.00	29.695 
12:00	70.1	70.1	70.1	85	65.4	3	7	248	0.00	29.691 
12:05	70.1	70.1	70.1	85	65.4	3	10	270	0.00	29.691 
12:10	70.3	70.3	70.3	84	65.2	3	5	270	0.00	29.691 
12:15	70.3	70.3	70.3	84	65.2	3	7	248	0.00	29.692 
12:20	70.6	70.6	70.6	83	65.2	3	7	270	0.00	29.692 
12:25	70.9	70.9	70.9	83	65.5	2	5	270	0.00	29.692 
12:30	71.1	71.1	71.1	82	65.3	3	7	270	0.00	29.691 
12:35	71.3	71.3	71.3	81	65.2	2	5	248	0.00	29.691 
12:40	71.3	71.3	71.3	80	64.8	3	6	248	0.00	29.691 
12:45	71.3	71.3	71.3	80	64.8	3	6	248	0.00	29.686 
12:50	71.1	71.1	71.1	80	64.6	3	7	248	0.00	29.686 
12:55	70.9	70.9	70.9	80	64.4	2	5	248	0.00	29.686 
13:00	70.8	70.8	70.8	81	64.7	2	6	248	0.00	29.682 
13:05	70.6	70.6	70.6	81	64.5	1	4	248	0.00	29.682 
13:10	70.6	70.6	70.6	81	64.5	2	6	270	0.00	29.682 
13:15	70.6	70.6	70.6	81	64.5	2	6	248	0.00	29.680 
13:20	70.8	70.8	70.8	81	64.7	3	6	248	0.00	29.680 
13:25	70.6	70.6	70.6	81	64.5	2	6	248	0.00	29.680 
13:30	70.8	70.8	70.8	80	64.3	2	7	270	0.00	29.673 
13:35	71.1	71.1	71.1	80	64.6	2	5	248	0.00	29.673 
13:40	71.1	71.1	71.1	80	64.6	1	4	248	0.00	29.673 
13:45	70.9	70.9	70.9	79	64.1	3	6	248	0.00	29.661 
13:50	70.8	70.8	70.8	80	64.3	2	4	248	0.00	29.661 
13:55	70.6	70.6	70.6	80	64.1	3	7	270	0.00	29.661 
14:00	70.6	70.6	70.6	80	64.1	2	5	248	0.00	29.682 
14:05	70.4	70.4	70.4	81	64.3	2	7	248	0.00	29.682 
14:10	70.3	70.3	70.3	81	64.2	2	11	248	0.00	29.682 
14:15	70.3	70.3	70.3	80	63.8	3	6	270	0.00	29.672 
14:20	70.4	70.4	70.4	79	63.6	2	7	270	0.00	29.672 
14:25	70.6	70.6	70.6	80	64.1	1	4	270	0.00	29.672 
14:30	70.6	70.6	70.6	79	63.8	2	7	248	0.00	29.676 
14:35	70.8	70.8	70.8	79	64.0	3	5	248	0.00	29.676 
14:40	70.9	70.9	70.9	79	64.1	2	6	270	0.00	29.676 
14:45	71.1	71.1	71.1	79	64.2	2	5	90	0.00	29.671 
14:50	70.9	70.9	70.9	79	64.1	3	6	248	0.00	29.671 
14:55	70.8	70.8	70.8	80	64.3	1	4	270	0.00	29.671 
15:00	70.8	70.8	70.8	80	64.3	1	5	248	0.00	29.677 
15:05	70.8	70.8	70.8	81	64.7	1	4	248	0.00	29.677 
15:10	70.8	70.8	70.8	80	64.3	1	3	248	0.00	29.677 
15:15	70.8	70.8	70.8	79	64.0	2	6	248	0.00	29.665 
15:20	71.1	71.1	71.1	78	63.9	1	5	270	0.00	29.665 
15:25	71.3	71.3	71.3	78	64.1	2	3	225	0.00	29.665 
15:30	71.1	71.1	71.1	78	63.9	1	4	248	0.00	29.663 
15:35	70.9	70.9	70.9	77	63.3	1	6	248	0.00	29.663 
15:40	70.8	70.8	70.8	78	63.6	1	5	270	0.00	29.663 
15:45	70.3	70.3	70.3	80	63.8	1	4	270	0.00	29.655 
15:50	69.9	69.9	69.9	82	64.1	1	4	248	0.01	29.655 
15:55	69.4	69.4	69.4	84	64.3	1	4	112	0.00	29.655 
16:00	68.9	68.9	68.9	86	64.5	0	4	248	0.00	29.653 
16:05	68.8	68.8	68.8	86	64.4	1	4	248	0.00	29.653 
16:10	68.6	68.6	68.6	87	64.6	1	5	112	0.01	29.653 
16:15	68.4	68.4	68.4	88	64.7	1	2	90	0.00	29.637 
16:20	68.1	68.1	68.1	88	64.4	1	5	90	0.00	29.637 
16:25	67.9	67.9	67.9	89	64.5	1	4	90	0.00	29.637 
16:30	67.8	67.8	67.8	90	64.8	1	2	90	0.00	29.632 
16:35	67.6	67.6	67.6	90	64.6	1	4	90	0.00	29.632 
16:40	67.4	67.4	67.4	90	64.4	1	3	90	0.00	29.632 
16:45	67.4	67.4	67.4	90	64.4	0	2	90	0.00	29.627 
16:50	67.4	67.4	67.4	90	64.4	1	3	90	0.00	29.627 
16:55	67.4	67.4	67.4	89	64.0	1	3	68	0.00	29.627 
17:00	67.6	67.6	67.6	89	64.2	1	3	68	0.00	29.621 
17:05	67.6	67.6	67.6	89	64.2	1	5	90	0.00	29.621 
17:10	67.8	67.8	67.8	89	64.4	1	3	90	0.00	29.621 
17:15	67.8	67.8	67.8	88	64.1	1	3	112	0.00	29.615 
17:20	67.9	67.9	67.9	88	64.2	1	5	112	0.00	29.615 
17:25	67.9	67.9	67.9	88	64.2	1	4	112	0.00	29.615 
17:30	67.9	67.9	67.9	88	64.2	1	3	90	0.00	29.603 
17:35	67.9	67.9	67.9	87	63.9	1	3	112	0.00	29.603 
17:40	67.9	67.9	67.9	87	63.9	1	2	90	0.00	29.603 
17:45	67.9	67.9	67.9	87	63.9	1	3	45	0.00	29.602 
17:50	68.1	68.1	68.1	86	63.7	2	5	68	0.00	29.602 
17:55	68.3	68.3	68.3	85	63.6	2	4	90	0.00	29.602 
18:00	68.4	68.4	68.4	86	64.0	1	3	90	0.00	29.601 
18:05	68.6	68.6	68.6	85	63.9	1	5	248	0.00	29.601 
18:10	68.6	68.6	68.6	84	63.6	1	4	270	0.00	29.601 
18:15	68.8	68.8	68.8	84	63.8	1	4	292	0.00	29.594 
18:20	68.8	68.8	68.8	84	63.8	1	3	225	0.00	29.594 
18:25	68.8	68.8	68.8	84	63.8	1	6	270	0.00	29.594 
18:30	68.8	68.8	68.8	84	63.8	1	4	248	0.00	29.591 
18:35	68.8	68.8	68.8	83	63.4	2	10	270	0.00	29.591 
18:40	68.9	68.9	68.9	82	63.2	1	4	270	0.00	29.591 
18:45	68.9	68.9	68.9	83	63.5	1	5	225	0.00	29.579 
18:50	68.8	68.8	68.8	83	63.4	1	4	270	0.00	29.579 
18:55	68.8	68.8	68.8	82	63.1	1	4	90	0.00	29.579 
19:00	69.1	69.1	69.1	81	63.0	3	8	270	0.00	29.571 
19:05	69.1	69.1	69.1	81	63.0	2	6	270	0.00	29.571 
19:10	69.1	69.1	69.1	81	63.0	2	11	248	0.00	29.571 
19:15	69.1	69.1	69.1	81	63.0	2	5	248	0.00	29.567 
19:20	69.3	69.3	69.3	81	63.2	2	5	270	0.00	29.567 
19:25	69.3	69.3	69.3	80	62.9	2	7	270	0.00	29.567 
19:30	69.3	69.3	69.3	81	63.2	2	9	248	0.00	29.557 
19:35	69.1	69.1	69.1	81	63.0	3	11	248	0.00	29.557 
19:40	69.3	69.3	69.3	81	63.2	3	10	270	0.00	29.557 
19:45	69.1	69.1	69.1	81	63.0	4	10	248	0.00	29.556 
19:50	68.9	68.9	68.9	82	63.2	3	9	270	0.00	29.556 
19:55	68.8	68.8	68.8	82	63.1	3	8	248	0.00	29.556 
20:00	68.8	68.8	68.8	82	63.1	2	7	248	0.00	29.552 
20:05	68.9	68.9	68.9	82	63.2	2	7	270	0.00	29.552 
20:10	68.8	68.8	68.8	82	63.1	2	6	270	0.00	29.552 
20:15	68.6	68.6	68.6	83	63.2	3	9	248	0.00	29.553 
20:20	68.6	68.6	68.6	83	63.2	3	12	270	0.00	29.553 
20:25	68.6	68.6	68.6	84	63.6	3	9	270	0.00	29.553 
20:30	68.6	68.6	68.6	84	63.6	2	9	270	0.00	29.548 
20:35	68.4	68.4	68.4	84	63.4	2	8	270	0.00	29.548 
20:40	68.4	68.4	68.4	84	63.4	2	9	270	0.00	29.548 
20:45	68.3	68.3	68.3	84	63.3	2	6	248	0.00	29.551 
20:50	68.3	68.3	68.3	84	63.3	2	5	270	0.00	29.551 
20:55	68.3	68.3	68.3	85	63.6	2	6	248	0.00	29.551 
21:00	68.1	68.1	68.1	86	63.7	2	4	248	0.00	29.547 
21:05	67.9	67.9	67.9	87	63.9	1	4	248	0.00	29.547 
21:10	67.8	67.8	67.8	87	63.8	2	5	270	0.00	29.547 
21:15	67.8	67.8	67.8	88	64.1	2	6	270	0.00	29.553 
21:20	67.6	67.6	67.6	88	63.9	2	6	248	0.00	29.553 
21:25	67.4	67.4	67.4	89	64.0	2	5	270	0.00	29.553 
21:30	67.4	67.4	67.4	89	64.0	2	7	248	0.00	29.556 
21:35	67.4	67.4	67.4	89	64.0	2	5	248	0.00	29.556 
21:40	67.4	67.4	67.4	89	64.0	3	7	248	0.00	29.556 
21:45	67.4	67.4	67.4	90	64.4	2	5	248	0.00	29.564 
21:50	67.3	67.3	67.3	90	64.3	3	10	248	0.00	29.564 
21:55	67.3	67.3	67.3	91	64.6	3	9	248	0.00	29.564 
22:00	67.1	67.1	67.1	91	64.4	3	5	270	0.00	29.566 
22:05	67.1	67.1	67.1	91	64.4	3	10	270	0.00	29.566 
22:10	66.9	66.9	66.9	92	64.5	2	5	270	0.01	29.566 
22:15	67.1	67.1	67.1	92	64.7	3	9	270	0.00	29.567 
22:20	66.9	66.9	66.9	92	64.5	2	6	248	0.00	29.567 
22:25	66.9	66.9	66.9	92	64.5	3	12	248	0.00	29.567 
22:30	66.9	66.9	66.9	92	64.5	3	7	248	0.00	29.563 
22:35	66.9	66.9	66.9	92	64.5	2	7	248	0.00	29.563 
22:40	66.9	66.9	66.9	92	64.5	3	7	270	0.00	29.563 
22:45	66.9	66.9	66.9	92	64.5	2	5	270	0.00	29.558 
22:50	66.9	66.9	66.9	92	64.5	1	7	248	0.00	29.558 
22:55	66.8	66.8	66.8	93	64.7	2	5	248	0.00	29.558 
23:00	66.8	66.8	66.8	93	64.7	2	6	248	0.00	29.559 
23:05	66.8	66.8	66.8	93	64.7	2	4	248	0.00	29.559 
23:10	66.9	66.9	66.9	92	64.5	2	4	248	0.00	29.559 
23:15	66.9	66.9	66.9	92	64.5	1	4	248	0.00	29.566 
23:20	66.9	66.9	66.9	92	64.5	1	3	248	0.00	29.566 
23:25	66.9	66.9	66.9	92	64.5	1	2	248	0.00	29.566 
23:30	65.0	65.0	65.0	82	59.4	2	5	315	0.01	29.591 
23:35	63.2	63.2	63.2	85	58.6	2	4	292	0.01	29.591 
23:40	62.0	62.0	62.0	88	58.4	1	4	315	0.03	29.591 
23:45	61.2	61.2	61.2	91	58.5	0	3	315	0.00	29.600 
23:50	60.9	60.9	60.9	92	58.6	0	2	315	0.01	29.600 
23:55	60.5	60.5	60.5	92	58.2	0	1	315	0.00	29.600 

CoCoRaHS
IN-AL-39
A2 Web Hosting
Creative Commons License
GoDaddy
Look for:

loaded 2017-10-17 09:10:49 • last modified 2010-11-18 10:43:29
Privacy PolicyDisclaimer
• wx.awcolley.com is powered by PmWiki v.2002016 •
• all content (unless otherwise noted) © 2017 A W Colley